IBP YPJT-YPJT

Flight info

Callsign IBP
Flight time N/A
Altitude 3000
Route PH
Aircraft BT36/L-BDFGLORY/S

Departure

Time 2026-05-04 08:16
Airport Perth Jandakot Airport (YPJT)

Arrival

Time N/A
Airport Perth Jandakot Airport (YPJT)
Time Latitude Longitude Altitude Speed Heading
2026-05-04 08:11 -32.09862 115.87293 99 ft 0 kts 114°
2026-05-04 08:14 -32.09866 115.87308 99 ft 6 kts 84°
2026-05-04 08:14 -32.09830 115.87366 99 ft 11 kts 83°
2026-05-04 08:14 -32.09875 115.87411 99 ft 9 kts 161°
2026-05-04 08:16 -32.07309 115.90460 849 ft 142 kts 339°
2026-05-04 08:16 -32.06740 115.89674 1025 ft 127 kts 273°
2026-05-04 08:16 -32.06901 115.88700 1206 ft 123 kts 253°
2026-05-04 08:17 -32.07123 115.87681 1271 ft 135 kts 252°
2026-05-04 08:17 -32.07369 115.86576 1251 ft 143 kts 254°
2026-05-04 08:17 -32.07523 115.85393 1135 ft 151 kts 280°
2026-05-04 08:17 -32.07187 115.84199 1029 ft 156 kts 289°
2026-05-04 08:19 -32.04977 115.76879 1448 ft 144 kts 289°
2026-05-04 08:19 -32.04638 115.75757 1454 ft 146 kts 289°
2026-05-04 08:20 -32.04112 115.74748 1449 ft 148 kts 326°
2026-05-04 08:20 -32.03108 115.74585 1454 ft 151 kts
2026-05-04 08:20 -32.02070 115.74759 1458 ft 151 kts
2026-05-04 08:20 -32.01034 115.74955 1453 ft 151 kts 17°
2026-05-04 08:21 -32.00290 115.75792 1451 ft 153 kts 62°
2026-05-04 08:21 -31.99868 115.76928 1457 ft 154 kts 68°
2026-05-04 08:21 -31.99474 115.78096 1457 ft 153 kts 68°
2026-05-04 08:21 -31.99084 115.79267 1455 ft 154 kts 68°
2026-05-04 08:22 -31.98693 115.80446 1456 ft 154 kts 68°
2026-05-04 08:22 -31.98302 115.81622 1457 ft 155 kts 68°
2026-05-04 08:24 -31.95844 115.89023 2504 ft 124 kts 68°
2026-05-04 08:24 -31.95526 115.89971 2724 ft 125 kts 65°
2026-05-04 08:24 -31.94826 115.90570 2747 ft 135 kts
2026-05-04 08:24 -31.93856 115.90673 2757 ft 145 kts
2026-05-04 08:25 -31.92830 115.90789 2758 ft 151 kts
2026-05-04 08:25 -31.91771 115.90900 2754 ft 154 kts
2026-05-04 08:25 -31.90832 115.90433 2754 ft 152 kts 311°
2026-05-04 08:25 -31.90231 115.89419 2756 ft 151 kts 300°
2026-05-04 08:26 -31.89731 115.88338 2756 ft 151 kts 297°
2026-05-04 08:27 -31.85388 115.81852 2738 ft 144 kts 11°
2026-05-04 08:28 -31.84513 115.82409 2745 ft 144 kts 32°
2026-05-04 08:28 -31.83740 115.83151 2746 ft 144 kts 44°
2026-05-04 08:28 -31.83058 115.83991 2747 ft 144 kts 52°
2026-05-04 08:28 -31.82487 115.84961 2748 ft 144 kts 55°
2026-05-04 08:29 -31.81927 115.85938 2748 ft 144 kts 58°
2026-05-04 08:29 -31.81488 115.86996 2748 ft 144 kts 65°
2026-05-04 08:29 -31.81076 115.88072 2749 ft 144 kts 65°
2026-05-04 08:31 -31.80256 115.95233 2734 ft 105 kts 180°
2026-05-04 08:33 -31.79529 115.97834 2629 ft 122 kts 95°
2026-05-04 08:33 -31.79627 115.98850 2455 ft 128 kts 103°
2026-05-04 08:35 -31.83950 116.00121 2455 ft 149 kts 213°
2026-05-04 08:35 -31.84880 115.99491 2296 ft 159 kts 203°
2026-05-04 08:35 -31.85949 115.99047 2048 ft 166 kts 200°
2026-05-04 08:35 -31.87021 115.98611 1757 ft 157 kts 200°
2026-05-04 08:37 -31.92233 115.97025 171 ft 84 kts 195°
2026-05-04 08:37 -31.92775 115.96870 83 ft 78 kts 194°
2026-05-04 08:37 -31.93291 115.96721 43 ft 74 kts 195°
2026-05-04 08:38 -31.93730 115.96591 44 ft 52 kts 194°